Flag for South Korea Weather past 2 weeks in Cheongju, South Korea

Now
77 °F

Sunny.


Feels Like: 77 °F
Forecast: 46 / 73 °F
Wind: 7 mph from West

Location: Chongju Ab

Current Time: Apr 27, 2015 at 2:36:54 PM

Latest Report: Apr 27, 2015 at 2:00 PM


Visibility: 10 mi

Pressure: 29.98 "Hg

Humidity: 26%

Dew point: 39 °F

Location of CheongjuLocation

Historic Weather in Cheongju — Graph

°F

Cheongju temperature yesterday

Maximum temperature yesterday: 81 °F (at 4:00 PM)
Minimum temperature yesterday: 39 °F (at 6:00 AM)
Average temperature yesterday: 60 °F

Past Weeks' High & Low Weather Summary

 TemperatureHumidityPressure
High81 °F (Apr 26, 4:00 PM)100% (Apr 21, 3:57 AM)30.26 "Hg (Apr 21, 3:57 AM)
Low32 °F (Apr 18, 6:00 AM)13% (Apr 25, 12:00 PM)29.59 "Hg (Apr 20, 5:00 AM)
Average54 °F61%29.97 "Hg
* Reported Apr 12 1:00 PM — Apr 27 1:00 PM, Cheongju, Weather by CustomWeather, © 2015

Note: Actual official high and low records may vary slightly from our data, if they occured in-between our weather recording intervals... More about our weather records

Advertising

Cheongju weather history for previous 24 hours

 ConditionsComfort  
Time TempWeatherWind HumidityBarometerVisibility
1:00 PM
Mon, Apr 27
75 °FSunny.8 mph25%30.01 "Hg10 mi
12:00 PM73 °FSunny.7 mph25%30.04 "Hg10 mi
11:00 AM70 °FSunny.6 mph27%30.07 "Hg10 mi
10:00 AM68 °FSunny.6 mph24%30.07 "Hg10 mi
9:00 AM63 °FSunny.3 mph39%30.07 "Hg10 mi
8:00 AM55 °FSunny.1 mph59%30.09 "Hg10 mi
7:00 AM48 °FSunny.2 mph76%30.09 "Hg10 mi
6:00 AM43 °FSunny.1 mph81%30.07 "Hg10 mi
5:00 AM45 °FClear.3 mph81%30.07 "Hg10 mi
4:00 AM48 °FClear.1 mph66%30.07 "Hg10 mi
3:00 AM55 °FClear.1 mph47%30.07 "Hg10 mi
2:00 AM50 °FClear.2 mph67%30.07 "Hg10 mi
1:00 AM54 °FClear.1 mph51%30.07 "Hg10 mi
12:00 AM57 °FClear.5 mph39%30.07 "Hg10 mi
11:00 PM
Sun, Apr 26
57 °FClear.7 mph48%30.07 "Hg6 mi
10:00 PM59 °FClear.5 mph51%30.07 "Hg6 mi
9:00 PM64 °FClear.9 mph34%30.04 "Hg6 mi
8:00 PM64 °FClear.8 mph37%30.01 "Hg6 mi
7:00 PM70 °FClear.10 mph38%30.01 "Hg6 mi
6:00 PM75 °FClear.12 mph34%29.98 "Hg6 mi
5:00 PM79 °FClear.10 mph30%29.98 "Hg6 mi
4:00 PM81 °FClear.10 mph28%30.01 "Hg6 mi
3:00 PM79 °FSunny.6 mph26%30.04 "Hg10 mi
2:00 PM77 °FSunny.6 mph24%30.07 "Hg10 mi
Weather by CustomWeather, © 2015

See weather overviewHow to use our weather pages